Location: Marcé
(47.5801°N, 0.3280°W)
Time: 18:29:17
(UTC+01:00)

Vanguard 2 Rocket - Pass Details

Date: 10 December 2021
Orbit: 553 x 3325 km, 32.9° (Epoch: 23 January)

Event Time Altitude Azimuth Distance (km) Brightness Sun altitude
Rises 17:10:22 0° 213° (SSW) 2,782 10.9 -0.9°
Reaches altitude 10° 17:13:48 10° 180° (S) 2,077 9.3 -1.4°
Maximum altitude 17:15:37 12° 157° (SSE) 2,080 8.9 -1.7°
Drops below altitude 10° 17:17:39 10° 134° (SE) 2,406 9.0 -1.9°
Sets 17:22:31 0° 106° (ESE) 3,880 9.7 -2.6°
